GEFSCGP_850_meantemp_330.txt.gz
Temperature
28 25 24 24 25 26 26 26 26 27 28 26 25 24 24 24 24 24 23 23 23 23 22 22 22 22 22 21 21 21 20 20 20 20 20 19 19 19 19 19 19 19 19 19
25 25 27 27 27 27 27 26 26 26 27 26 25 25 25 24 24 24 24 23 23 23 22 22 22 22 22 21 21 21 20 20 20 20 20 19 19 19 19 19 19 19 19 19
26 27 28 28 28 27 27 26 26 26 26 26 25 24 24 24 25 24 24 24 23 23 22 22 22 22 22 21 21 21 21 20 20 20 20 19 19 19 19 19 18 18 18 19
27 28 29 28 28 28 26 28 28 27 25 23 24 22 23 23 23 24 24 23 23 23 23 23 22 22 22 22 21 21 21 20 20 20 20 19 19 19 19 18 18 18 18 18
27 28 28 28 29 29 27 28 28 27 25 23 24 22 22 23 23 23 23 24 23 23 23 23 22 22 22 22 21 21 21 20 20 20 19 19 19 19 19 18 18 18 18 18
28 29 29 29 30 29 28 27 25 23 22 23 24 23 22 22 23 23 23 24 23 23 23 23 22 22 22 21 21 21 21 20 20 20 19 19 19 19 18 18 18 18 18 18
27 29 29 30 28 28 26 24 22 23 22 22 23 23 22 24 24 24 24 24 23 23 23 23 22 22 22 21 21 21 21 20 20 20 19 19 19 19 18 18 18 18 18 18
26 26 28 29 28 27 26 24 23 23 22 22 23 23 23 25 25 25 25 24 23 23 23 23 22 22 22 21 21 21 21 20 20 20 19 19 19 18 18 18 18 18 18 17
25 26 29 30 30 28 27 25 23 22 22 22 22 23 24 24 24 24 24 24 23 23 23 23 22 22 22 21 21 21 21 20 20 20 19 19 19 18 18 18 18 18 18 17
26 26 28 29 29 28 27 25 22 22 22 22 23 23 22 23 23 23 23 23 23 23 23 23 22 22 22 22 21 21 20 20 20 20 19 19 19 18 18 18 18 18 17 17
26 25 26 27 27 27 27 26 23 21 21 21 22 22 24 23 23 22 23 24 24 23 23 23 23 22 22 21 21 21 20 20 20 20 19 19 19 18 18 18 18 17 17 17
25 23 24 25 26 27 27 25 23 22 22 20 21 22 24 23 23 23 23 23 24 23 23 23 23 22 22 21 21 21 20 20 20 19 19 19 19 18 18 18 17 17 17 17
25 22 23 24 24 25 26 26 24 21 20 20 21 22 23 23 23 23 23 23 23 23 23 22 22 22 22 21 21 21 20 20 19 19 19 19 18 18 18 18 17 17 17 17
25 22 22 23 23 25 25 26 25 23 21 21 22 22 23 22 22 22 23 23 23 23 22 22 22 22 21 21 21 20 20 20 19 19 18 18 18 18 18 17 17 17 17 16
23 23 24 24 25 26 26 26 26 25 23 22 22 22 22 22 22 23 23 23 22 22 22 22 21 21 21 21 21 20 20 19 19 19 18 18 18 17 17 17 17 16 16 16
21 23 23 24 25 25 25 26 26 25 25 24 23 23 22 23 23 22 22 22 22 21 21 21 21 21 21 21 20 20 19 19 19 18 18 18 18 17 17 17 16 16 16 16
21 21 21 22 24 24 24 24 25 24 24 23 23 22 22 21 21 22 22 22 22 21 21 21 21 21 21 20 20 20 19 19 19 18 18 18 17 17 17 17 16 16 16 16
21 20 19 20 22 23 23 24 25 24 24 23 22 22 22 22 22 22 23 22 22 21 21 21 21 20 20 20 20 19 19 19 18 18 18 17 17 17 17 16 16 16 16 16
20 20 19 19 21 22 23 24 24 24 22 22 22 22 22 22 21 21 22 22 22 21 21 20 20 20 20 19 19 19 19 18 18 18 17 17 17 17 16 16 16 16 16 16
19 19 19 19 21 21 22 24 25 23 21 22 22 21 21 21 18 19 21 21 21 21 20 20 20 20 19 19 19 18 18 18 18 17 17 17 16 16 16 16 16 16 16 16
20 19 19 19 20 21 22 24 24 22 21 22 22 22 22 20 20 21 21 21 21 20 20 20 19 19 19 18 18 18 18 18 17 17 17 16 16 16 16 16 16 16 15 15
18 18 18 18 19 20 22 22 21 20 22 22 22 22 21 21 21 20 20 20 20 20 19 19 19 18 18 18 18 18 17 17 17 17 16 16 16 16 16 16 16 15 15 15
18 18 17 17 18 20 22 22 23 23 22 22 22 21 21 20 20 20 19 19 19 19 19 19 18 18 18 18 17 17 17 17 16 16 16 16 16 16 16 15 15 15 15 14
18 18 17 17 19 20 21 22 22 23 22 22 22 21 21 20 19 19 19 19 19 19 19 18 18 18 17 17 17 17 17 16 16 16 16 16 15 15 15 15 15 14 14 14
18 18 17 17 18 19 21 21 21 21 22 21 21 21 20 20 19 19 19 19 18 18 18 18 17 17 17 17 16 16 16 16 16 16 15 15 15 15 15 15 14 14 14 14
17 17 17 17 18 18 19 20 21 20 20 20 20 19 19 19 19 19 18 18 18 18 17 17 17 16 16 16 16 16 15 15 15 15 15 15 15 15 14 14 14 14 14 14

GEFSCGP_850_meantemp_336.txt.gz
Temperature
24 23 22 23 23 24 23 23 23 23 24 23 22 22 22 21 21 21 21 21 21 21 21 21 21 20 20 20 20 20 20 20 19 19 19 19 19 19 18 18 18 18 18 18
23 23 24 24 24 24 23 23 23 24 24 23 22 22 22 21 21 21 21 21 21 21 21 21 21 20 20 20 20 20 20 19 19 19 19 19 18 18 18 18 18 18 18 18
25 25 25 25 24 24 24 23 23 23 23 23 23 22 22 22 21 21 21 21 21 21 21 21 21 20 20 20 20 20 20 19 19 19 19 19 19 18 18 18 18 18 18 18
24 25 25 25 25 24 23 24 24 24 22 21 22 21 22 21 21 21 21 21 21 21 21 21 21 21 21 20 20 20 19 19 19 19 19 19 19 18 18 18 18 18 18 18
25 25 26 25 25 25 24 24 23 23 22 21 21 21 21 20 21 20 21 21 21 21 21 21 21 21 21 20 20 20 19 19 19 19 19 19 18 18 18 18 18 18 18 18
25 25 26 26 26 25 24 23 22 20 20 21 21 21 21 20 21 21 21 21 22 21 21 21 21 21 20 20 20 20 19 19 19 19 19 19 18 18 18 18 18 18 17 17
25 25 25 25 25 25 23 21 21 21 20 21 21 21 21 21 21 21 21 22 22 22 21 21 21 21 20 20 20 20 19 19 19 19 19 18 18 18 18 18 17 17 17 17
24 24 25 25 25 24 23 22 21 22 21 20 21 21 21 22 22 22 22 22 22 22 22 22 21 21 21 20 20 20 19 19 19 19 19 18 18 18 18 18 17 17 17 17
23 24 25 26 25 24 23 21 21 20 20 20 20 21 21 22 21 21 21 21 22 22 22 22 22 21 21 21 20 20 20 19 19 19 19 18 18 18 18 18 17 17 17 17
23 24 25 25 25 24 23 20 19 19 20 21 21 21 21 22 21 21 20 21 22 22 22 22 22 21 21 21 20 20 20 19 19 19 19 18 18 18 18 17 17 17 17 17
23 23 24 24 25 24 23 21 19 17 19 20 21 21 22 21 21 20 20 21 22 22 22 22 22 21 21 21 20 20 20 19 19 19 18 18 18 18 18 18 17 17 17 16
21 20 21 23 24 24 23 22 19 21 20 18 19 20 22 20 20 20 21 21 22 22 22 22 21 21 21 21 20 20 20 19 19 19 18 18 18 18 18 18 17 17 17 16
21 20 21 22 23 23 23 21 19 18 17 17 19 21 21 20 20 21 21 21 22 21 21 21 21 21 21 21 20 20 20 19 19 19 18 18 18 18 18 17 17 17 16 16
21 19 21 22 22 22 23 22 20 19 19 18 19 20 20 20 19 20 20 21 21 21 21 21 21 21 21 20 20 20 20 19 19 18 18 18 18 17 17 17 17 17 16 16
20 20 20 21 22 22 23 23 21 21 20 20 20 19 20 19 19 19 20 21 21 21 21 21 21 21 21 20 20 20 19 19 19 18 18 18 17 17 17 17 16 16 16 16
18 19 20 21 22 22 22 22 22 21 21 20 20 20 19 19 20 19 20 20 20 20 20 20 20 20 20 20 20 20 19 19 19 18 18 18 17 17 17 16 16 16 16 16
17 18 19 19 21 22 21 21 22 21 20 20 20 20 18 18 18 19 20 20 20 20 20 20 20 20 20 20 20 19 19 18 18 18 17 17 17 17 16 16 16 16 16 15
17 16 16 17 20 21 21 21 21 21 20 20 19 19 18 18 19 20 20 20 20 20 20 20 20 20 19 19 19 19 18 18 18 17 17 17 16 16 16 16 16 16 15 15
15 16 16 16 18 20 21 21 21 21 20 19 18 18 18 19 19 19 20 20 20 20 20 20 19 19 19 19 19 18 18 17 17 17 17 16 16 16 16 16 16 15 15 15
14 15 15 16 19 19 20 21 21 20 20 19 18 18 18 18 17 18 20 20 20 19 19 19 19 19 19 18 18 18 18 17 17 17 16 16 16 16 16 16 15 15 15 15
16 15 16 16 18 18 19 19 20 20 19 19 19 19 18 18 18 19 19 19 19 19 19 19 18 18 18 18 18 17 17 17 16 16 16 16 16 16 15 15 15 15 15 15
16 16 15 15 18 18 19 19 19 18 20 19 19 19 19 19 19 19 19 19 19 19 18 18 18 18 17 17 17 17 16 16 16 16 16 16 16 15 15 15 15 15 15 14
15 15 15 15 17 17 18 19 20 20 19 19 20 19 19 18 18 18 18 18 18 18 18 18 17 17 17 17 16 16 16 16 16 16 16 15 15 15 15 15 14 14 14 14
15 14 14 15 16 17 18 19 19 20 20 20 20 20 19 19 18 18 18 17 17 17 17 17 17 16 16 16 16 16 16 15 15 15 15 15 15 15 14 14 14 14 14 13
14 14 14 14 15 17 18 19 19 19 20 19 19 19 19 18 18 17 17 17 17 17 17 16 16 16 16 15 15 15 15 15 15 15 15 15 14 14 14 14 14 13 13 13
13 14 14 15 16 15 17 18 19 19 19 19 19 18 18 18 18 17 17 17 17 16 16 16 16 16 15 15 15 15 15 15 14 14 14 14 14 14 13 13 13 13 13 13

GEFSCGP_850_meantemp_342.txt.gz
Temperature
29 31 31 31 31 30 30 30 30 30 30 30 30 29 29 28 27 27 26 25 24 24 23 22 21 20 20 19 19 19 19 19 19 18 18 18 18 18 18 18 18 18 18 18
30 30 31 31 30 30 30 30 30 30 30 30 30 29 30 29 28 27 26 25 25 24 23 22 21 20 20 19 19 19 19 19 19 19 19 18 18 18 18 18 18 18 18 18
30 31 31 30 30 30 30 30 30 30 30 30 30 30 30 29 28 27 26 26 25 24 24 22 21 21 20 20 19 19 19 19 19 19 18 18 18 18 18 17 18 18 18 18
30 31 30 30 30 30 30 30 30 29 29 30 30 30 30 30 29 28 27 26 25 25 24 23 22 21 21 20 19 19 19 19 19 19 18 18 18 18 17 17 17 17 17 17
30 31 30 30 30 30 30 30 30 30 30 30 30 30 31 30 29 29 28 27 26 25 24 23 22 21 21 20 20 19 19 19 19 18 18 18 18 18 18 17 17 17 17 17
31 31 31 31 31 30 30 30 30 30 31 29 30 30 30 30 29 29 28 27 26 25 24 23 22 21 21 20 20 19 19 19 19 19 18 18 18 18 17 17 17 17 17 17
30 31 31 31 30 30 30 30 30 29 30 30 30 30 30 30 30 29 28 27 25 25 24 23 22 21 21 20 20 20 19 19 19 19 18 18 18 18 17 17 17 17 17 17
30 30 31 31 31 30 31 31 29 29 29 30 30 30 30 30 29 28 27 27 25 24 24 23 22 22 21 21 20 19 19 19 19 19 19 18 18 18 18 17 17 17 17 17
31 30 31 31 31 31 31 31 31 30 30 30 30 30 30 29 29 28 27 26 26 25 24 23 23 22 21 21 20 20 19 19 19 19 19 18 18 18 17 17 17 17 17 17
31 30 31 31 30 30 31 31 30 30 29 29 30 30 30 28 28 28 28 27 26 25 24 23 23 22 22 21 20 20 19 19 19 19 19 18 18 18 18 17 17 17 17 17
31 30 30 30 30 30 30 30 30 30 30 29 29 30 30 28 28 28 28 26 25 25 24 23 23 22 21 21 20 20 19 19 19 18 18 18 18 18 17 17 17 17 17 16
30 31 30 30 31 31 31 31 30 29 29 29 29 29 29 29 29 28 27 26 25 24 24 23 22 22 21 21 20 20 19 19 19 18 18 18 18 17 17 17 17 17 16 16
29 30 29 29 30 30 30 30 31 31 30 30 29 29 29 28 28 27 26 25 24 23 23 22 22 21 21 20 20 20 19 19 18 18 18 18 17 17 17 17 17 16 16 16
28 29 29 29 30 30 30 29 30 30 30 30 30 29 29 28 28 27 26 24 24 23 22 22 21 21 20 20 19 19 19 19 18 18 18 18 17 17 17 17 16 16 16 16
29 29 29 29 29 29 29 29 29 29 30 29 29 29 29 28 27 26 25 24 23 23 22 21 21 20 20 19 19 19 18 18 18 18 17 17 17 17 17 16 16 16 16 16
28 28 28 28 29 29 29 29 29 29 29 29 29 29 28 27 26 25 24 23 23 22 21 21 20 20 19 19 19 19 18 18 18 17 17 17 17 16 16 16 16 16 15 15
27 27 27 28 28 28 28 29 29 29 29 29 29 28 27 26 25 24 23 23 22 21 21 20 20 19 19 19 18 18 18 18 18 17 17 17 16 16 16 16 16 15 15 15
26 26 27 27 27 26 28 29 29 28 28 28 27 27 26 25 24 24 23 22 21 21 20 20 19 19 19 18 18 18 18 17 17 17 16 16 16 16 16 16 15 15 15 15
25 25 26 27 27 27 28 28 28 28 27 27 27 26 25 25 24 24 22 21 21 20 19 19 19 19 18 18 18 17 17 17 17 16 16 16 16 15 15 15 15 15 15 14
25 25 26 26 26 26 27 27 27 27 26 26 26 25 24 24 25 24 21 20 20 19 19 19 18 18 18 17 17 17 17 16 16 16 16 15 15 15 15 15 15 15 14 14
25 24 25 26 26 27 27 26 26 26 25 25 24 24 23 24 24 22 20 19 19 18 18 18 17 17 17 17 17 16 16 16 16 15 15 15 15 15 15 15 15 14 14 14
25 25 25 25 25 25 25 26 25 24 23 23 23 22 22 22 21 20 19 18 18 17 17 17 17 16 16 16 16 16 16 15 15 15 15 15 15 15 15 14 14 14 14 14
24 24 25 25 25 23 23 23 22 21 21 21 22 21 21 21 20 19 18 18 17 17 16 16 16 16 16 16 16 16 15 15 15 15 15 14 14 14 14 14 14 14 14 14
23 22 23 23 23 22 22 21 20 20 20 20 20 20 20 20 19 18 18 17 16 16 16 16 16 16 15 15 15 15 15 15 14 14 14 14 14 14 14 14 14 13 13 13
22 22 22 22 22 22 21 20 20 19 20 20 19 19 19 19 18 18 17 17 16 16 15 15 15 15 15 15 15 15 15 14 14 14 14 14 14 13 13 13 13 13 13 13
21 21 22 22 21 21 21 19 19 19 19 18 18 18 18 18 18 17 17 16 16 15 15 15 15 15 15 15 14 14 14 14 14 14 14 14 14 13 13 13 13 13 13 12

GEFSCGP_850_meantemp_348.txt.gz
Temperature
32 31 31 31 32 32 32 32 31 32 34 33 32 32 32 31 31 30 29 29 28 27 26 24 24 23 22 21 20 20 20 20 19 19 19 19 19 19 19 19 19 19 19 18
31 31 32 33 33 33 32 31 32 32 33 33 32 32 32 32 31 31 30 29 28 27 26 25 24 23 22 21 21 20 20 20 19 19 19 19 19 19 19 19 19 18 18 18
31 32 33 33 33 32 32 32 31 32 32 33 32 31 31 32 31 31 30 30 29 28 26 25 24 23 22 21 21 20 20 20 19 19 19 19 19 19 19 19 18 18 18 18
32 33 33 33 33 33 32 33 33 32 31 31 31 29 30 31 31 31 30 30 29 28 27 25 24 24 23 22 21 20 20 20 19 19 19 19 19 19 19 18 18 18 18 18
32 33 33 33 33 33 33 34 33 33 32 31 31 30 30 31 30 31 31 30 29 28 27 26 25 24 23 22 21 20 20 20 20 19 19 19 19 19 19 18 18 18 18 18
33 34 34 34 34 34 34 33 33 32 32 30 31 30 29 30 30 30 30 29 28 28 27 26 25 24 23 23 21 21 20 20 20 19 19 19 19 19 19 18 18 18 18 18
32 33 34 34 34 34 33 32 30 30 30 30 32 31 30 31 31 31 30 29 28 28 27 26 25 24 23 22 22 21 20 20 20 19 19 19 19 19 18 18 18 18 18 18
31 32 33 34 34 33 33 32 30 29 29 30 31 30 30 31 31 31 30 29 28 28 27 26 25 24 23 22 22 21 20 20 19 19 19 19 19 18 18 18 18 18 18 18
31 32 34 34 35 34 32 32 32 31 31 30 30 30 31 31 31 31 30 29 29 28 27 26 25 24 23 22 21 21 20 20 19 19 19 19 19 18 18 18 18 18 18 17
32 31 33 34 35 34 34 33 32 31 29 28 29 29 29 29 30 30 30 29 29 28 27 26 25 24 23 23 22 21 20 20 19 19 19 19 19 18 18 18 18 18 18 18
33 31 32 33 33 33 33 33 32 31 30 29 28 29 30 29 30 30 30 29 28 28 27 26 25 24 23 23 22 21 20 20 19 19 19 19 18 18 18 18 18 18 17 17
33 32 30 32 34 34 34 33 33 31 29 30 29 29 31 30 31 30 29 28 27 27 26 25 24 24 23 23 22 21 21 20 20 19 19 19 18 18 18 17 17 17 17 17
32 31 29 30 32 33 33 33 33 33 31 30 29 29 31 31 30 29 28 27 27 26 26 25 24 23 22 22 21 21 21 20 20 19 19 18 18 18 17 17 17 17 17 17
31 31 30 29 30 31 31 32 33 32 30 29 30 29 30 30 29 28 27 27 26 25 25 24 23 22 22 21 21 21 20 20 20 19 19 18 18 18 17 17 17 17 16 16
32 30 30 31 31 31 31 32 32 32 31 30 30 30 29 29 29 28 27 26 26 25 24 24 23 22 21 21 20 20 20 20 19 19 19 18 18 18 17 17 17 17 16 16
31 30 29 30 31 31 31 31 32 31 31 31 30 29 29 28 28 27 26 26 26 25 24 23 22 21 21 20 20 20 19 19 19 19 18 18 18 17 17 17 17 16 16 16
30 29 28 29 30 30 29 31 31 31 31 30 29 29 29 28 27 27 26 26 25 24 23 23 22 21 20 20 20 19 19 19 19 18 18 18 17 17 17 16 16 16 16 16
29 28 28 28 28 27 29 31 31 30 30 30 29 29 28 28 27 26 25 25 25 24 23 22 21 21 20 20 19 19 19 18 18 18 17 17 17 16 16 16 16 16 16 15
30 28 27 27 27 28 29 30 31 29 28 29 29 29 28 27 26 25 25 24 24 23 22 21 21 20 20 19 19 18 18 18 18 17 17 16 16 16 16 16 16 16 15 15
29 28 27 27 26 26 28 29 30 29 27 28 28 28 27 27 26 25 24 23 23 22 22 21 20 20 19 19 18 18 17 17 17 17 16 16 16 15 15 15 15 15 15 15
27 27 27 27 26 27 28 29 29 27 26 27 27 27 26 25 25 24 23 22 22 21 21 20 19 19 19 18 18 17 17 17 16 16 16 16 15 15 15 15 15 15 15 15
27 27 26 26 26 25 27 27 26 25 25 25 25 25 24 24 23 23 22 21 21 20 20 19 18 18 18 17 17 17 16 16 16 15 15 15 15 15 15 15 15 15 14 14
27 27 26 26 25 25 25 25 25 24 24 24 24 24 23 23 22 22 21 20 20 19 19 18 18 17 17 17 16 16 16 16 15 15 15 15 14 14 14 14 14 14 14 14
26 27 26 25 26 25 25 24 24 23 23 23 23 23 22 22 21 21 20 20 19 19 18 18 17 17 16 16 16 16 15 15 15 15 15 14 14 14 14 14 14 14 14 14
24 25 25 24 24 24 23 23 23 23 22 22 22 22 21 21 21 20 19 19 18 18 17 17 16 16 16 16 16 15 15 15 14 14 14 14 14 14 14 14 14 14 14 14
24 24 24 23 23 23 22 22 22 22 21 21 21 21 21 20 20 19 18 18 17 17 16 16 16 16 15 15 15 15 14 14 14 14 14 14 14 14 14 14 14 14 14 14